When you browse on this site, cookies collect data to enhance your experience and personalize the content and advertising you see.
Visit our Privacy Policy to learn more. By continuing to use the site, you agree to this use of cookies and data.
  • In Sweden
  • List of Countries
  • For 7 days
  • Water Temperature
  • Weather Map
  • Weather Widgets
  • user-avatar
    Login

    Hourly Weather South Lake Tahoe

    Today, 7 December, Saturday

    Time Temperature Precipitation Wind Pressure Humidity
    00:00 -1°C° 1.1 mm 5 mps 600 mmHg 93%
    01:00 -2°C° 1.1 mm 5 mps 600 mmHg 95%
    02:00 -1°C° 2.4 mm 5 mps 600 mmHg 96%
    03:00 -1°C° 2.4 mm 5 mps 600 mmHg 97%
    04:00 0°C° 2.4 mm 5 mps 601 mmHg 98%
    05:00 -1°C° 1.7 mm 6 mps 601 mmHg 98%
    06:00 -1°C° 1.7 mm 6 mps 600 mmHg 98%
    07:00 -1°C° 1.7 mm 7 mps 600 mmHg 98%
    08:00 -1°C° 0.7 mm 7 mps 600 mmHg 98%
    09:00 -1°C° 0.7 mm 7 mps 600 mmHg 98%
    10:00 0°C° 0.7 mm 7 mps 600 mmHg 98%
    11:00 0°C° 0.5 mm 7 mps 600 mmHg 97%
    12:00 0°C° 0.5 mm 8 mps 599 mmHg 97%
    13:00 0°C° 0.5 mm 8 mps 599 mmHg 96%
    14:00 -1°C° 2.6 mm 8 mps 598 mmHg 97%
    15:00 -1°C° 2.6 mm 7 mps 598 mmHg 97%
    16:00 -1°C° 2.6 mm 6 mps 598 mmHg 98%
    17:00 -1°C° 6.1 mm 6 mps 598 mmHg 98%
    18:00 -2°C° 6.1 mm 6 mps 598 mmHg 98%
    19:00 -2°C° 6.1 mm 6 mps 599 mmHg 99%
    20:00 -2°C° 2.7 mm 6 mps 599 mmHg 98%
    21:00 -3°C° 2.7 mm 6 mps 599 mmHg 97%
    22:00 -3°C° 2.7 mm 6 mps 599 mmHg 96%
    23:00 -2°C° 0.1 mm 5 mps 599 mmHg 95%

    Tomorrow, 8 December, Sunday

    Time Temperature Precipitation Wind Pressure Humidity
    00:00 -4°C° 0.1 mm 5 mps 599 mmHg 93%
    01:00 -4°C° 0.1 mm 5 mps 599 mmHg 91%
    02:00 -4°C° 0.1 mm 4 mps 599 mmHg 91%
    03:00 -4°C° 0.1 mm 4 mps 599 mmHg 91%
    04:00 -5°C° 0.1 mm 4 mps 598 mmHg 91%
    05:00 -5°C° 0.2 mm 3 mps 599 mmHg 91%
    06:00 -4°C° 0.2 mm 2 mps 599 mmHg 92%
    07:00 -4°C° 0.2 mm 2 mps 599 mmHg 92%
    08:00 -3°C° 0.5 mm 2 mps 600 mmHg 94%
    09:00 0°C° 0.5 mm 1 mps 600 mmHg 96%
    10:00 +1°C° 0.5 mm 1 mps 601 mmHg 97%
    11:00 +2°C° 0.3 mm 1 mps 601 mmHg 98%
    12:00 +2°C° 0.3 mm 1 mps 601 mmHg 98%
    13:00 +2°C° 0.3 mm 1 mps 601 mmHg 98%
    14:00 +2°C° 0.1 mm 1 mps 601 mmHg 98%
    15:00 +1°C° 0.1 mm 1 mps 601 mmHg 97%
    16:00 +1°C° 0.1 mm 1 mps 601 mmHg 97%
    17:00 0°C° 0 mm 1 mps 601 mmHg 97%
    18:00 0°C° 0 mm 1 mps 601 mmHg 97%
    19:00 -1°C° 0 mm 1 mps 601 mmHg 96%
    20:00 -1°C° 0 mm 1 mps 601 mmHg 96%
    21:00 -2°C° 0 mm 1 mps 601 mmHg 95%
    22:00 -2°C° 0 mm 1 mps 602 mmHg 95%
    23:00 -2°C° 0 mm 1 mps 602 mmHg 94%

    Day after tomorrow, 9 December, Monday

    Time Temperature Precipitation Wind Pressure Humidity
    00:00 -3°C° 0 mm 1 mps 602 mmHg 93%
    01:00 -3°C° 0 mm 1 mps 602 mmHg 92%
    02:00 -3°C° 0 mm 1 mps 602 mmHg 90%
    03:00 -3°C° 0 mm 1 mps 602 mmHg 88%
    04:00 -3°C° 0 mm 1 mps 602 mmHg 86%
    05:00 -3°C° 0 mm 1 mps 602 mmHg 82%
    06:00 -3°C° 0 mm 1 mps 602 mmHg 78%
    07:00 -4°C° 0 mm 1 mps 602 mmHg 74%
    08:00 -1°C° 0 mm 1 mps 603 mmHg 79%
    09:00 +1°C° 0 mm 1 mps 604 mmHg 85%
    10:00 +2°C° 0 mm 0 mps 605 mmHg 90%
    11:00 +3°C° 0 mm 1 mps 605 mmHg 91%
    12:00 +3°C° 0 mm 1 mps 605 mmHg 92%
    13:00 +4°C° 0 mm 1 mps 604 mmHg 93%
    14:00 +3°C° 0 mm 1 mps 604 mmHg 92%
    15:00 +1°C° 0 mm 0 mps 604 mmHg 91%
    16:00 +1°C° 0 mm 0 mps 604 mmHg 90%
    17:00 +1°C° 0 mm 1 mps 603 mmHg 84%
    18:00 0°C° 0 mm 1 mps 603 mmHg 78%
    19:00 -2°C° 0 mm 1 mps 603 mmHg 73%
    20:00 -2°C° 0 mm 1 mps 603 mmHg 68%
    21:00 -2°C° 0 mm 1 mps 604 mmHg 64%
    22:00 -2°C° 0 mm 1 mps 604 mmHg 59%
    23:00 -2°C° 0 mm 1 mps 604 mmHg 57%

    10 December, Tuesday

    Time Temperature Precipitation Wind Pressure Humidity
    00:00 -2°C° 0 mm 1 mps 604 mmHg 55%
    01:00 -2°C° 0 mm 1 mps 604 mmHg 54%
    02:00 -2°C° 0 mm 1 mps 604 mmHg 53%
    03:00 -2°C° 0 mm 1 mps 604 mmHg 53%
    04:00 -2°C° 0 mm 1 mps 604 mmHg 53%
    05:00 -2°C° 0 mm 1 mps 604 mmHg 53%
    06:00 -2°C° 0 mm 1 mps 604 mmHg 53%
    07:00 -1°C° 0 mm 1 mps 604 mmHg 53%
    08:00 0°C° 0 mm 1 mps 605 mmHg 63%
    09:00 +2°C° 0 mm 1 mps 606 mmHg 73%
    10:00 +4°C° 0 mm 1 mps 606 mmHg 83%
    11:00 +4°C° 0 mm 1 mps 606 mmHg 86%
    12:00 +5°C° 0 mm 1 mps 606 mmHg 88%
    13:00 +5°C° 0 mm 1 mps 605 mmHg 90%
    14:00 +4°C° 0 mm 1 mps 605 mmHg 86%
    15:00 +4°C° 0 mm 1 mps 605 mmHg 82%
    16:00 +3°C° 0 mm 1 mps 604 mmHg 78%
    17:00 +2°C° 0 mm 1 mps 604 mmHg 75%
    18:00 +1°C° 0 mm 1 mps 604 mmHg 73%
    19:00 0°C° 0 mm 1 mps 604 mmHg 70%
    20:00 0°C° 0 mm 1 mps 604 mmHg 70%
    21:00 +1°C° 0 mm 1 mps 604 mmHg 70%
    22:00 -1°C° 0 mm 2 mps 604 mmHg 70%
    23:00 -2°C° 0 mm 2 mps 603 mmHg 71%

    11 December, Wednesday

    Time Temperature Precipitation Wind Pressure Humidity
    00:00 -2°C° 0 mm 2 mps 603 mmHg 72%
    01:00 -2°C° 0 mm 2 mps 603 mmHg 72%
    02:00 -2°C° 0 mm 2 mps 603 mmHg 75%
    03:00 0°C° 0 mm 1 mps 603 mmHg 77%
    04:00 0°C° 0 mm 1 mps 603 mmHg 79%
    05:00 -1°C° 0 mm 1 mps 603 mmHg 81%
    06:00 -1°C° 0 mm 1 mps 603 mmHg 82%
    07:00 -2°C° 0 mm 1 mps 603 mmHg 83%
    08:00 0°C° 0 mm 1 mps 604 mmHg 86%
    09:00 +2°C° 0 mm 1 mps 605 mmHg 88%
    10:00 +2°C° 0 mm 0 mps 605 mmHg 90%
    11:00 +4°C° 0 mm 1 mps 605 mmHg 90%
    12:00 +4°C° 0 mm 1 mps 605 mmHg 90%
    13:00 +4°C° 0 mm 1 mps 604 mmHg 90%
    14:00 +3°C° 0 mm 1 mps 604 mmHg 90%
    15:00 +3°C° 0 mm 1 mps 604 mmHg 91%
    16:00 +2°C° 0 mm 1 mps 603 mmHg 91%
    17:00 +1°C° 0 mm 1 mps 603 mmHg 88%
    18:00 0°C° 0 mm 1 mps 603 mmHg 84%
    19:00 -2°C° 0 mm 1 mps 603 mmHg 80%
    20:00 -1°C° 0 mm 1 mps 603 mmHg 74%
    21:00 -1°C° 0 mm 1 mps 603 mmHg 69%
    22:00 -1°C° 0 mm 1 mps 603 mmHg 64%
    23:00 -1°C° 0 mm 1 mps 603 mmHg 62%

    12 December, Thursday

    Time Temperature Precipitation Wind Pressure Humidity
    00:00 -3°C° 0 mm 2 mps 603 mmHg 60%
    01:00 -3°C° 0 mm 2 mps 603 mmHg 58%
    02:00 -2°C° 0 mm 2 mps 603 mmHg 58%
    03:00 -2°C° 0 mm 2 mps 603 mmHg 57%
    04:00 -2°C° 0 mm 2 mps 603 mmHg 57%
    05:00 -2°C° 0 mm 2 mps 603 mmHg 57%
    06:00 -2°C° 0 mm 2 mps 604 mmHg 58%
    07:00 -2°C° 0 mm 2 mps 604 mmHg 59%
    08:00 -1°C° 0 mm 2 mps 604 mmHg 62%
    09:00 +1°C° 0 mm 2 mps 604 mmHg 66%
    10:00 +2°C° 0 mm 2 mps 605 mmHg 69%
    11:00 +2°C° 0 mm 2 mps 605 mmHg 74%
    12:00 +2°C° 0 mm 3 mps 604 mmHg 78%
    13:00 +2°C° 0 mm 3 mps 604 mmHg 83%
    14:00 +1°C° 0.3 mm 3 mps 604 mmHg 87%
    15:00 +1°C° 0.3 mm 3 mps 604 mmHg 91%
    16:00 +1°C° 0.3 mm 3 mps 604 mmHg 95%
    17:00 +1°C° 0.2 mm 3 mps 604 mmHg 95%
    18:00 +1°C° 0.2 mm 3 mps 604 mmHg 96%
    19:00 +2°C° 0.2 mm 3 mps 605 mmHg 96%
    20:00 +1°C° 0 mm 3 mps 605 mmHg 96%
    21:00 +1°C° 0 mm 3 mps 605 mmHg 96%
    22:00 +2°C° 0 mm 2 mps 605 mmHg 96%
    23:00 +2°C° 0 mm 2 mps 604 mmHg 96%
    Show more